Main page
METAR-TAF:

METAR-TAF

Airports :

Kharg Island, Iran

Kharg Airport

latitude: 29-15-34N, longitude: 50-19-24E, elevation: 5 m

Current weather observation

The report was made 9 hours and 4 minutes ago, at 17:00 UTC
Wind 4 kt from the East
Temperature 32°C
Humidity 79%
Pressure 995 hPa
Visibility: 8000 m

METAR: OIBQ 281700Z 09004KT 8000 NSC 32/28 Q0995

Time: 06:34 (02:04 UTC)


TAF: missing

Weather observations and forecasts of more than 4000 airports (METAR and TAF reports).

The available stations are represented by yellow and red dots on the map.

Hover mouse over dot to see the name of the station.

Then click to see weather observations and forecasts.

To change the map : click on the green buttons with a black cross to zoom in, on the green button with a dash to zoom out, or on the green arrows for adjacent maps.


METAR-TAF: